Weather Roundup
Issued by NWS Corpus Christi, TX

Home | Current Version | Previous Version | Text Only | Print | Product List | Glossary On
Versions: 1 2 3 4 5 6 7 8 9 10 11 12 13 14 15 16 17 18 19 20 21 22 23 24 25 26 27 28 29 30 31 32 33 34 35 36 37 38 39 40 41 42 43 44 45 46 47 48 49 50
000
ASUS44 KCRP 051610
HRRCRP

SOUTH TEXAS REGIONAL WEATHER ROUNDUP
NATIONAL WEATHER SERVICE CORPUS CHRISTI TX
1000 AM CST MON DEC 05 2016


TXZ229>244-051700-
...CORPUS CHRISTI AREA OBSERVATIONS...

CITY           SKY/WX    TMP DP  RH WIND       PRES   REMARKS
CORPUS CHRISTI CLOUDY    53  51  93 NW17      29.90R
NAS CORPUS CHR CLOUDY    54  50  86 NW18      29.89R
ROCKPORT         N/A    N/A N/A N/A MISG      29.88F
KINGSVILLE NAS PTSUNNY   56  53  90 N15       29.90R
ALICE          CLOUDY    55  50  83 N9        29.89S
ORANGE GROVE   CLOUDY    54  52  93 N18       29.90S
FALFURRIAS     CLOUDY    56  50  81 NW10      29.91S
$$

...VICTORIA AREA OBSERVATIONS...

CITY           SKY/WX    TMP DP  RH WIND       PRES   REMARKS
VICTORIA       RAIN      50  50 100 NW14      29.87S FOG
BEEVILLE       CLOUDY    46  46 100 NW14      29.90R
PLEASANTON     CLOUDY    50  49  95 NW6       29.93R
SAN ANTONIO    NOT AVBL
$$

...LAREDO AREA OBSERVATIONS...

CITY           SKY/WX    TMP DP  RH WIND       PRES   REMARKS
LAREDO         CLOUDY    52  49  89 W13       29.95R
COTULLA        CLOUDY    53  49  86 NW10      29.94R
DEL RIO        CLOUDY    52  48  86 NW6       29.93F
MCALLEN        CLOUDY    59  52  77 W8        29.93R
HEBBRONVILLE   CLOUDY    51  49  92 NW10      29.92R
$$

...OTHER TEXAS OBSERVATIONS...

CITY           SKY/WX    TMP DP  RH WIND       PRES   REMARKS
BROWNSVILLE    LGT RAIN  55  50  83 NW8       29.93R
HOUSTON        LGT RAIN  53  50  89 NE9       29.82F
COL. STATION   LGT RAIN  49  47  93 N12       29.84F
AUSTIN         LGT RAIN  50  49  96 NW5       29.91R FOG
WACO           LGT RAIN  48  46  93 N7        29.92R FOG
FORT WORTH     CLOUDY    49  43  80 E7        29.89F
WICHITA FALLS  PTSUNNY   42  41  96 SE9       29.89S FOG
LUBBOCK        MOSUNNY   45  35  68 S12       29.81F
EL PASO        MOSUNNY   42  32  67 SE5       29.94R
$$

...MARINE OBSERVATIONS...

STATION/POSITION TIME  SKY/WX   TEMP    WIND        PRES    VSBY  WAVE   SWELL
                                AIR SEA DIR/SP/G                  HT/PER HT/PER
                 (UTC)          (F)     (DEG/KT/KT) (MB)    (MI)  (FT/S) (FT/S)
PORT ARANSAS     1600            52 64  310/ 13/ 16 1011.4R
BUOY 90 E PORT A 1550            68 77  340/ 17/ 21 1008.3R         7/ 8   3/ 8
BUOY 45 SE BAFFI 1550            58 76  320/ 16/ 19 1010.9R         7/ 8   5/ 8
BUOY 200 E PT IS 1550            78 79  260/ 14/ 17 1008.4R         6/ 7   3/ 7
BUOY 15 E GALVES 1550            56 67  360/ 17/ 21 1009.4R         6/ 6   2/15
$$




USA.gov is the U.S. government's official web portal to all federal, state and local government web resources and services.